Regional Weather Roundup
Issued by NWS Albany, NY

Home | Current Version | Previous Version | Text Only | Print | Product List | Glossary On
Versions: 1 2 3 4 5 6 7 8 9 10 11 12 13 14 15 16 17 18 19 20 21 22 23 24 25 26 27 28 29 30 31 32 33 34 35 36 37 38 39 40 41 42 43 44 45 46 47 48 49 50
000
ASUS41 KALY 261310
RWRALY

NEW YORK STATE HOURLY WEATHER ROUNDUP
NATIONAL WEATHER SERVICE ALBANY NY
900 AM EDT WED APR 26 2017

NOTE: "FAIR" INDICATES FEW OR NO CLOUDS BELOW 12,000 FEET WITH NO
SIGNIFICANT WEATHER AND/OR NO OBSTRUCTIONS TO VISIBILITY.

NYZ032-033-038>043-046>054-057>066-NYZ062>081-082-084-261400-
EAST


CITY           SKY/WX    TMP DP  RH WIND       PRES   REMARKS
ALBANY         DRIZZLE   52  50  93 N6        29.87F FOG
GLENS FALLS    CLOUDY    52  49  89 N9        29.89S
POUGHKEEPSIE   CLOUDY    53  51  93 N8        29.80S
NEWBURGH       CLOUDY    54  54 100 NE9       29.81F FOG
MONTGOMERY     CLOUDY    54  51  90 NE15G23   29.79F
WHITE PLAINS   CLOUDY    54  52  93 NE9       29.76R FOG
ISLIP          LGT RAIN  52  52 100 NE15      29.75S FOG
NEW YORK CITY  LGT RAIN  54  51  90 NE14      29.76R FOG
CENTRAL PARK   CLOUDY    54  53  97 VRB6      29.78S
$$

NYZ005>009-017-018-044>046-055-056-261400-
CENTRAL


CITY           SKY/WX    TMP DP  RH WIND       PRES   REMARKS
FULTON         CLOUDY    56  49  77 SE7       29.83S
SYRACUSE       PTSUNNY   55  50  83 E10       29.82F
ROME           CLOUDY    55  51  86 SE3       29.85S
ELMIRA         CLOUDY    57  51  80 NE3       29.81R
BINGHAMTON     CLOUDY    53  49  86 E6        29.80S
MONTICELLO     CLOUDY    52  52 100 E13G21    29.80F
$$

NYZ026>034-041>043-087-261400-
NORTH


CITY           SKY/WX    TMP DP  RH WIND       PRES   REMARKS
WATERTOWN      CLOUDY    55  52  89 NE7       29.84S
FORT DRUM      NOT AVBL
OGDENSBURG     CLOUDY    54  52  95 NE6       29.86F
MASSENA        CLOUDY    52  50  93 NE9       29.90S
SARANAC LAKE   CLOUDY    53  52  96 NE6       29.86F
PLATTSBURGH    CLOUDY    50  48  93 CALM      29.91F
$$

NYZ001>004-010>016-019>021-085-261400-
WEST


CITY           SKY/WX    TMP DP  RH WIND       PRES   REMARKS
NIAGARA FALLS  CLOUDY    59  52  77 E6        29.79S
BUFFALO        PTSUNNY   57  51  80 E8        29.80R
DUNKIRK        CLOUDY    58  52  80 E3        29.80R
JAMESTOWN      CLOUDY    54  48  82 SE6       29.80S
WELLSVILLE     CLOUDY    53  51  93 SE5       29.83R FOG
ROCHESTER      PTSUNNY   58  52  80 SE3       29.81F
PENN YAN       CLOUDY    56  50  80 CALM      29.81F
$$

             KEY
       WCI = WIND CHILL INDEX
       VSB = VISIBILITY
       HX  = HEAT INDEX
$$



USA.gov is the U.S. government's official web portal to all federal, state and local government web resources and services.